| time (UTC) | temp C | wind direction | speed KPH | gust KPH | rain 1hr cm | rain 24hr cm | rain mn cm | humidity % | barometer mb |
| 20260510110024 | 18 | 108 | 20.9 | 27.4 | 0.00 | 0.00 | 0.00 | 84 | 1013.5 |
| 20260510105524 | 18 | 102 | 20.9 | 24.1 | 0.00 | 0.00 | 0.00 | 84 | 1013.5 |
| 20260510104525 | 18 | 97 | 19.3 | 24.1 | 0.00 | 0.00 | 0.00 | 84 | 1013.6 |
| 20260510104025 | 18 | 94 | 17.7 | 24.1 | 0.00 | 0.00 | 0.00 | 85 | 1013.6 |
| 20260510103524 | 18 | 88 | 16.1 | 20.9 | 0.00 | 0.00 | 0.00 | 85 | 1013.6 |
| 20260510103025 | 18 | 90 | 16.1 | 27.4 | 0.00 | 0.00 | 0.00 | 85 | 1013.6 |
| 20260510102525 | 18 | 92 | 14.5 | 27.4 | 0.00 | 0.00 | 0.00 | 84 | 1013.5 |
| 20260510101525 | 18 | 95 | 22.5 | 25.7 | 0.00 | 0.00 | 0.00 | 84 | 1013.2 |
| 20260510101024 | 18 | 94 | 19.3 | 29.0 | 0.00 | 0.00 | 0.00 | 84 | 1013.2 |
| 20260510100525 | 18 | 88 | 20.9 | 29.0 | 0.00 | 0.00 | 0.00 | 84 | 1013.1 |
| 20260510095524 | 18 | 0 | 0.0 | 37.0 | 0.00 | 0.00 | 0.00 | 85 | 1013.0 |
| 20260510094525 | 18 | 80 | 24.1 | 40.2 | 0.00 | 0.00 | 0.00 | 87 | 1013.2 |
| 20260510094025 | 18 | 87 | 24.1 | 40.2 | 0.00 | 0.00 | 0.00 | 87 | 1013.2 |
| 20260510093525 | 18 | 88 | 32.2 | 35.4 | 0.00 | 0.00 | 0.00 | 87 | 1013.2 |
| 20260510092025 | 19 | 75 | 22.5 | 45.1 | 0.00 | 0.00 | 0.00 | 86 | 1013.0 |
| 20260510091525 | 19 | 64 | 32.2 | 45.1 | 0.00 | 0.00 | 0.00 | 85 | 1012.9 |
| 20260510090524 | 20 | 74 | 29.0 | 45.1 | 0.00 | 0.00 | 0.00 | 81 | 1012.8 |
| 20260510090024 | 20 | 59 | 29.0 | 45.1 | 0.00 | 0.00 | 0.00 | 79 | 1012.7 |
| 20260510085024 | 20 | 59 | 19.3 | 29.0 | 0.00 | 0.00 | 0.00 | 75 | 1012.5 |
| 20260510084526 | 21 | 43 | 24.1 | 38.6 | 0.00 | 0.00 | 0.00 | 73 | 1012.5 |
| 20260510084027 | 21 | 62 | 27.4 | 38.6 | 0.00 | 0.00 | 0.00 | 72 | 1012.0 |
| 20260510083526 | 21 | 68 | 32.2 | 37.0 | 0.00 | 0.00 | 0.00 | 75 | 1012.0 |
| 20260510083027 | 21 | 72 | 29.0 | 38.6 | 0.00 | 0.00 | 0.00 | 75 | 1011.7 |
| 20260510082026 | 21 | 69 | 24.1 | 40.2 | 0.00 | 0.00 | 0.00 | 77 | 1012.3 |
| 20260510081527 | 21 | 65 | 33.8 | 43.5 | 0.00 | 0.00 | 0.00 | 78 | 1012.5 |
| 20260510080528 | 21 | 12 | 24.1 | 27.4 | 0.00 | 0.00 | 0.00 | 81 | 1013.1 |
| 20260510080026 | 21 | 4 | 19.3 | 29.0 | 0.00 | 0.00 | 0.00 | 80 | 1013.3 |
| 20260510075026 | 21 | 9 | 27.4 | 38.6 | 0.00 | 0.00 | 0.00 | 81 | 1013.4 |
| 20260510074527 | 21 | 27 | 25.7 | 48.3 | 0.00 | 0.00 | 0.00 | 82 | 1012.9 |
| 20260510074028 | 21 | 52 | 25.7 | 53.1 | 0.00 | 0.00 | 0.00 | 81 | 1012.6 |
| 20260510073028 | 22 | 10 | 27.4 | 33.8 | 0.00 | 0.00 | 0.00 | 85 | 1013.1 |
| 20260510072527 | 22 | 10 | 22.5 | 25.7 | 0.00 | 0.00 | 0.00 | 84 | 1012.6 |
| 20260510072029 | 22 | 25 | 16.1 | 16.1 | 0.00 | 0.00 | 0.00 | 82 | 1011.8 |
| 20260510071528 | 22 | 59 | 9.7 | 16.1 | 0.00 | 0.00 | 0.00 | 81 | 1011.3 |
| 20260510071027 | 22 | 76 | 11.3 | 16.1 | 0.00 | 0.00 | 0.00 | 80 | 1011.0 |
| 20260510070528 | 22 | 81 | 14.5 | 17.7 | 0.00 | 0.00 | 0.00 | 79 | 1010.9 |
| 20260510070027 | 22 | 88 | 16.1 | 20.9 | 0.00 | 0.00 | 0.00 | 79 | 1010.8 |
| 20260510065527 | 23 | 98 | 17.7 | 20.9 | 0.00 | 0.00 | 0.00 | 78 | 1010.6 |
| 20260510065026 | 23 | 87 | 14.5 | 20.9 | 0.00 | 0.00 | 0.00 | 77 | 1010.6 |
| 20260510064526 | 23 | 102 | 17.7 | 20.9 | 0.00 | 0.00 | 0.00 | 76 | 1010.6 |
| 20260510064026 | 23 | 82 | 17.7 | 22.5 | 0.00 | 0.00 | 0.00 | 75 | 1010.4 |
| 20260510063526 | 23 | 79 | 14.5 | 22.5 | 0.00 | 0.00 | 0.00 | 74 | 1010.4 |
| 20260510062526 | 23 | 83 | 17.7 | 27.4 | 0.00 | 0.00 | 0.00 | 72 | 1010.6 |
| 20260510062028 | 23 | 85 | 24.1 | 27.4 | 0.00 | 0.00 | 0.00 | 71 | 1010.5 |
| 20260510061528 | 23 | 85 | 27.4 | 27.4 | 0.00 | 0.00 | 0.00 | 71 | 1010.4 |
| 20260510061027 | 24 | 0 | 0.0 | 40.2 | 0.00 | 0.00 | 0.00 | 70 | 1010.5 |
| 20260510060527 | 24 | 0 | 0.0 | 40.2 | 0.00 | 0.00 | 0.00 | 68 | 1010.5 |
| 20260510060027 | 24 | 85 | 32.2 | 35.4 | 0.00 | 0.00 | 0.00 | 68 | 1010.6 |
| 20260510055527 | 25 | 85 | 24.1 | 41.8 | 0.00 | 0.00 | 0.00 | 67 | 1010.8 |
| 20260510055026 | 25 | 87 | 22.5 | 48.3 | 0.00 | 0.00 | 0.00 | 67 | 1011.1 |
| 20260510054527 | 25 | 81 | 25.7 | 51.5 | 0.00 | 0.00 | 0.00 | 67 | 1011.8 |
| 20260510053527 | 24 | 37 | 30.6 | 38.6 | 0.00 | 0.00 | 0.00 | 69 | 1012.7 |
| 20260510052527 | 23 | 25 | 32.2 | 41.8 | 0.00 | 0.00 | 0.00 | 74 | 1012.3 |
| 20260510052027 | 22 | 20 | 22.5 | 45.1 | 0.00 | 0.00 | 0.00 | 81 | 1012.2 |
| 20260510051528 | 21 | 3 | 38.6 | 45.1 | 0.00 | 0.00 | 0.00 | 82 | 1011.7 |
| 20260510051026 | 22 | 357 | 20.9 | 22.5 | 0.00 | 0.00 | 0.00 | 78 | 1010.8 |
| 20260510050529 | 22 | 85 | 9.7 | 16.1 | 0.00 | 0.00 | 0.00 | 77 | 1009.7 |
| 20260510050027 | 22 | 124 | 14.5 | 16.1 | 0.00 | 0.00 | 0.00 | 77 | 1009.2 |
| 20260510045527 | 22 | 120 | 12.9 | 16.1 | 0.00 | 0.00 | 0.00 | 76 | 1009.2 |
| 20260510045027 | 22 | 118 | 16.1 | 16.1 | 0.00 | 0.00 | 0.00 | 76 | 1009.1 |
| 20260510044527 | 22 | 124 | 11.3 | 16.1 | 0.00 | 0.00 | 0.00 | 75 | 1009.1 |
| 20260510044027 | 22 | 110 | 14.5 | 16.1 | 0.00 | 0.00 | 0.00 | 76 | 1009.1 |
| 20260510043528 | 22 | 109 | 14.5 | 17.7 | 0.00 | 0.00 | 0.00 | 76 | 1009.0 |
| 20260510042525 | 22 | 103 | 16.1 | 17.7 | 0.00 | 0.00 | 0.00 | 77 | 1008.8 |
| 20260510042026 | 22 | 120 | 16.1 | 17.7 | 0.00 | 0.00 | 0.00 | 77 | 1008.6 |
| 20260510041526 | 22 | 114 | 17.7 | 17.7 | 0.00 | 0.00 | 0.00 | 77 | 1008.6 |
| 20260510040528 | 22 | 119 | 16.1 | 19.3 | 0.00 | 0.00 | 0.00 | 77 | 1008.7 |
| 20260510035527 | 22 | 118 | 16.1 | 20.9 | 0.00 | 0.00 | 0.00 | 76 | 1008.8 |
| 20260510035027 | 22 | 123 | 16.1 | 20.9 | 0.00 | 0.00 | 0.00 | 75 | 1008.8 |
| 20260510034525 | 22 | 121 | 16.1 | 16.1 | 0.00 | 0.00 | 0.00 | 75 | 1008.9 |
| 20260510034025 | 22 | 130 | 12.9 | 17.7 | 0.00 | 0.00 | 0.00 | 75 | 1009.0 |
| 20260510033526 | 23 | 121 | 14.5 | 17.7 | 0.00 | 0.00 | 0.00 | 74 | 1009.0 |
| 20260510033028 | 23 | 124 | 16.1 | 19.3 | 0.00 | 0.00 | 0.00 | 73 | 1009.1 |
| 20260510032526 | 23 | 113 | 14.5 | 20.9 | 0.00 | 0.00 | 0.00 | 73 | 1009.1 |
| 20260510032028 | 23 | 116 | 17.7 | 22.5 | 0.00 | 0.00 | 0.00 | 73 | 1009.1 |
| 20260510031025 | 23 | 109 | 16.1 | 25.7 | 0.00 | 0.00 | 0.00 | 72 | 1008.9 |
| 20260510030525 | 23 | 114 | 17.7 | 22.5 | 0.00 | 0.00 | 0.00 | 73 | 1009.0 |
| 20260510030025 | 23 | 109 | 17.7 | 22.5 | 0.00 | 0.00 | 0.00 | 73 | 1009.0 |
| 20260510025525 | 23 | 107 | 16.1 | 20.9 | 0.00 | 0.00 | 0.00 | 72 | 1009.1 |
| 20260510025027 | 23 | 109 | 16.1 | 19.3 | 0.00 | 0.00 | 0.00 | 71 | 1009.1 |
| 20260510024526 | 23 | 111 | 16.1 | 17.7 | 0.00 | 0.00 | 0.00 | 71 | 1009.2 |
| 20260510024025 | 23 | 102 | 17.7 | 20.9 | 0.00 | 0.00 | 0.00 | 71 | 1009.2 |
| 20260510022525 | 23 | 97 | 12.9 | 19.3 | 0.00 | 0.00 | 0.00 | 74 | 1009.1 |
| 20260510022025 | 23 | 100 | 16.1 | 19.3 | 0.00 | 0.00 | 0.00 | 75 | 1009.0 |
| 20260510021025 | 24 | 101 | 16.1 | 17.7 | 0.00 | 0.00 | 0.00 | 75 | 1009.0 |
| 20260510020525 | 24 | 100 | 17.7 | 17.7 | 0.00 | 0.00 | 0.00 | 74 | 1008.9 |
| 20260510020025 | 24 | 100 | 16.1 | 17.7 | 0.00 | 0.00 | 0.00 | 74 | 1008.9 |
| 20260510015525 | 25 | 92 | 14.5 | 17.7 | 0.00 | 0.00 | 0.00 | 73 | 1008.9 |
| 20260510015025 | 25 | 92 | 16.1 | 17.7 | 0.00 | 0.00 | 0.00 | 73 | 1008.8 |
| 20260510014525 | 25 | 93 | 16.1 | 17.7 | 0.00 | 0.00 | 0.00 | 72 | 1008.8 |
| 20260510014025 | 25 | 91 | 14.5 | 17.7 | 0.00 | 0.00 | 0.00 | 72 | 1008.9 |
| 20260510013525 | 25 | 97 | 16.1 | 17.7 | 0.00 | 0.00 | 0.00 | 71 | 1008.8 |
| 20260510013026 | 25 | 109 | 16.1 | 16.1 | 0.00 | 0.00 | 0.00 | 71 | 1008.7 |
| 20260510012525 | 25 | 93 | 12.9 | 16.1 | 0.00 | 0.00 | 0.00 | 71 | 1008.7 |
| 20260510012025 | 26 | 90 | 12.9 | 16.1 | 0.00 | 0.00 | 0.00 | 71 | 1008.6 |
| 20260510011526 | 26 | 101 | 11.3 | 17.7 | 0.00 | 0.00 | 0.00 | 70 | 1008.5 |
| 20260510011027 | 26 | 112 | 14.5 | 17.7 | 0.00 | 0.00 | 0.00 | 69 | 1008.4 |
| 20260510010527 | 26 | 98 | 12.9 | 14.5 | 0.00 | 0.00 | 0.00 | 68 | 1008.3 |
| 20260510010027 | 26 | 104 | 12.9 | 14.5 | 0.00 | 0.00 | 0.00 | 68 | 1008.3 |
| 20260510005527 | 26 | 98 | 9.7 | 14.5 | 0.00 | 0.00 | 0.00 | 67 | 1008.2 |
| 20260510005027 | 27 | 99 | 14.5 | 20.9 | 0.00 | 0.00 | 0.00 | 66 | 1008.2 |
| 20260510004527 | 27 | 109 | 12.9 | 20.9 | 0.00 | 0.00 | 0.00 | 65 | 1008.1 |
| 20260510004027 | 27 | 114 | 20.9 | 20.9 | 0.00 | 0.00 | 0.00 | 63 | 1008.0 |
| 20260510003528 | 28 | 97 | 14.5 | 14.5 | 0.00 | 0.00 | 0.00 | 58 | 1008.1 |
| 20260510003027 | 28 | 111 | 8.0 | 11.3 | 0.00 | 0.00 | 0.00 | 54 | 1008.1 |
| 20260510002525 | 28 | 97 | 9.7 | 14.5 | 0.00 | 0.00 | 0.00 | 52 | 1008.0 |
| 20260510002028 | 28 | 97 | 11.3 | 17.7 | 0.00 | 0.00 | 0.00 | 51 | 1008.0 |
| 20260510001527 | 28 | 102 | 11.3 | 17.7 | 0.00 | 0.00 | 0.00 | 50 | 1008.0 |
| 20260510001028 | 28 | 94 | 9.7 | 14.5 | 0.00 | 0.00 | 0.00 | 50 | 1008.1 |
| 20260510000527 | 28 | 94 | 12.9 | 14.5 | 0.00 | 0.00 | 0.00 | 49 | 1008.1 |
| 20260510000028 | 28 | 85 | 11.3 | 17.7 | 0.00 | 0.00 | 0.00 | 49 | 1008.1 |
| 20260509235527 | 28 | 100 | 12.9 | 17.7 | 0.00 | 0.00 | 0.00 | 48 | 1008.1 |
| 20260509235025 | 29 | 89 | 9.7 | 17.7 | 0.00 | 0.00 | 0.00 | 48 | 1008.1 |
| 20260509234025 | 29 | 102 | 11.3 | 14.5 | 0.00 | 0.00 | 0.00 | 46 | 1008.2 |
| 20260509233525 | 29 | 92 | 11.3 | 16.1 | 0.00 | 0.00 | 0.00 | 47 | 1008.3 |
| 20260509233025 | 29 | 92 | 12.9 | 19.3 | 0.00 | 0.00 | 0.00 | 47 | 1008.3 |
| 20260509232525 | 29 | 77 | 14.5 | 19.3 | 0.00 | 0.00 | 0.00 | 46 | 1008.3 |
| 20260509231525 | 29 | 88 | 12.9 | 16.1 | 0.00 | 0.00 | 0.00 | 44 | 1008.4 |
| 20260509231025 | 30 | 104 | 11.3 | 14.5 | 0.00 | 0.00 | 0.00 | 46 | 1008.4 |
| 20260509230525 | 30 | 148 | 11.3 | 14.5 | 0.00 | 0.00 | 0.00 | 43 | 1008.4 |
| 20260509230025 | 30 | 92 | 8.0 | 16.1 | 0.00 | 0.00 | 0.00 | 46 | 1008.5 |
| 20260509225525 | 30 | 106 | 14.5 | 16.1 | 0.00 | 0.00 | 0.00 | 46 | 1008.5 |
| 20260509225025 | 29 | 88 | 12.9 | 16.1 | 0.00 | 0.00 | 0.00 | 46 | 1008.5 |
| 20260509224525 | 30 | 86 | 14.5 | 14.5 | 0.00 | 0.00 | 0.00 | 45 | 1008.5 |
| 20260509224026 | 29 | 131 | 9.7 | 14.5 | 0.00 | 0.00 | 0.00 | 45 | 1008.4 |
| 20260509223525 | 29 | 95 | 14.5 | 14.5 | 0.00 | 0.00 | 0.00 | 45 | 1008.5 |
| 20260509223027 | 29 | 100 | 9.7 | 16.1 | 0.00 | 0.00 | 0.00 | 47 | 1008.5 |
| 20260509222529 | 29 | 121 | 8.0 | 19.3 | 0.00 | 0.00 | 0.00 | 45 | 1008.4 |
| 20260509222025 | 29 | 87 | 14.5 | 22.5 | 0.00 | 0.00 | 0.00 | 46 | 1008.4 |
| 20260509221525 | 29 | 89 | 19.3 | 24.1 | 0.00 | 0.00 | 0.00 | 47 | 1008.4 |
| 20260509221025 | 29 | 93 | 8.0 | 24.1 | 0.00 | 0.00 | 0.00 | 47 | 1008.5 |
| 20260509220025 | 29 | 77 | 16.1 | 19.3 | 0.00 | 0.00 | 0.00 | 47 | 1008.5 |
| 20260509215525 | 29 | 70 | 14.5 | 22.5 | 0.00 | 0.00 | 0.00 | 48 | 1008.4 |
| 20260509214025 | 29 | 76 | 14.5 | 22.5 | 0.00 | 0.00 | 0.00 | 48 | 1008.4 |
| 20260509213525 | 29 | 91 | 16.1 | 22.5 | 0.00 | 0.00 | 0.00 | 50 | 1008.5 |
| 20260509212525 | 29 | 84 | 14.5 | 20.9 | 0.00 | 0.00 | 0.00 | 50 | 1008.6 |
| 20260509212026 | 29 | 111 | 16.1 | 20.9 | 0.00 | 0.00 | 0.00 | 51 | 1008.7 |
| 20260509211525 | 29 | 83 | 11.3 | 17.7 | 0.00 | 0.00 | 0.00 | 49 | 1008.8 |
| 20260509211025 | 29 | 89 | 4.8 | 22.5 | 0.00 | 0.00 | 0.00 | 48 | 1008.8 |
| 20260509210525 | 29 | 117 | 12.9 | 22.5 | 0.00 | 0.00 | 0.00 | 48 | 1008.9 |
| 20260509210025 | 30 | 86 | 19.3 | 19.3 | 0.00 | 0.00 | 0.00 | 50 | 1008.9 |
| 20260509205525 | 29 | 137 | 4.8 | 17.7 | 0.00 | 0.00 | 0.00 | 49 | 1009.0 |
| 20260509205025 | 29 | 82 | 12.9 | 20.9 | 0.00 | 0.00 | 0.00 | 48 | 1009.0 |
| 20260509204525 | 29 | 78 | 14.5 | 25.7 | 0.00 | 0.00 | 0.00 | 50 | 1009.1 |
| 20260509203525 | 30 | 99 | 12.9 | 17.7 | 0.00 | 0.00 | 0.00 | 48 | 1009.2 |
| 20260509203025 | 29 | 66 | 8.0 | 27.4 | 0.00 | 0.00 | 0.00 | 47 | 1009.2 |
| 20260509202527 | 29 | 57 | 20.9 | 27.4 | 0.00 | 0.00 | 0.00 | 48 | 1009.2 |
| 20260509202025 | 30 | 83 | 16.1 | 17.7 | 0.00 | 0.00 | 0.00 | 47 | 1009.2 |
| 20260509201525 | 29 | 103 | 12.9 | 16.1 | 0.00 | 0.00 | 0.00 | 42 | 1009.3 |
| 20260509201025 | 29 | 298 | 6.4 | 20.9 | 0.00 | 0.00 | 0.00 | 41 | 1009.3 |
| 20260509200525 | 30 | 60 | 14.5 | 20.9 | 0.00 | 0.00 | 0.00 | 44 | 1009.4 |
| 20260509200025 | 29 | 47 | 9.7 | 27.4 | 0.00 | 0.00 | 0.00 | 44 | 1009.4 |
| 20260509195525 | 29 | 58 | 19.3 | 27.4 | 0.00 | 0.00 | 0.00 | 42 | 1009.6 |
| 20260509195025 | 29 | 22 | 16.1 | 17.7 | 0.00 | 0.00 | 0.00 | 44 | 1009.6 |
| 20260509194525 | 29 | 6 | 4.8 | 19.3 | 0.00 | 0.00 | 0.00 | 45 | 1009.7 |
| 20260509194025 | 29 | 107 | 14.5 | 24.1 | 0.00 | 0.00 | 0.00 | 45 | 1009.8 |
| 20260509193025 | 28 | 58 | 8.0 | 22.5 | 0.00 | 0.00 | 0.00 | 49 | 1009.9 |
| 20260509192525 | 29 | 39 | 6.4 | 16.1 | 0.00 | 0.00 | 0.00 | 46 | 1010.0 |
| 20260509192025 | 29 | 265 | 6.4 | 11.3 | 0.00 | 0.00 | 0.00 | 45 | 1010.0 |
| 20260509191525 | 28 | 343 | 6.4 | 24.1 | 0.00 | 0.00 | 0.00 | 46 | 1010.1 |
| 20260509191025 | 28 | 63 | 11.3 | 24.1 | 0.00 | 0.00 | 0.00 | 47 | 1010.2 |
| 20260509190025 | 28 | 47 | 14.5 | 24.1 | 0.00 | 0.00 | 0.00 | 47 | 1010.2 |
| 20260509185525 | 28 | 43 | 22.5 | 24.1 | 0.00 | 0.00 | 0.00 | 51 | 1010.1 |
| 20260509185025 | 28 | 62 | 11.3 | 19.3 | 0.00 | 0.00 | 0.00 | 50 | 1010.2 |
| 20260509184525 | 28 | 78 | 4.8 | 11.3 | 0.00 | 0.00 | 0.00 | 55 | 1010.2 |
| 20260509184025 | 28 | 89 | 8.0 | 19.3 | 0.00 | 0.00 | 0.00 | 54 | 1010.3 |
| 20260509183026 | 28 | 15 | 16.1 | 22.5 | 0.00 | 0.00 | 0.00 | 53 | 1010.4 |
| 20260509182525 | 27 | 23 | 17.7 | 22.5 | 0.00 | 0.00 | 0.00 | 53 | 1010.4 |
| 20260509182025 | 27 | 46 | 11.3 | 22.5 | 0.00 | 0.00 | 0.00 | 58 | 1010.4 |
| 20260509181527 | 27 | 69 | 14.5 | 14.5 | 0.00 | 0.00 | 0.00 | 59 | 1010.5 |
| 20260509181025 | 27 | 58 | 14.5 | 16.1 | 0.00 | 0.00 | 0.00 | 59 | 1010.5 |
| 20260509180527 | 27 | 76 | 11.3 | 20.9 | 0.00 | 0.00 | 0.00 | 60 | 1010.6 |
| 20260509180025 | 27 | 50 | 9.7 | 20.9 | 0.00 | 0.00 | 0.00 | 58 | 1010.6 |
| 20260509175525 | 27 | 89 | 3.2 | 16.1 | 0.00 | 0.00 | 0.00 | 62 | 1010.7 |
| 20260509175025 | 27 | 36 | 14.5 | 16.1 | 0.00 | 0.00 | 0.00 | 60 | 1010.8 |
| 20260509174526 | 27 | 48 | 11.3 | 16.1 | 0.00 | 0.00 | 0.00 | 60 | 1010.9 |
| 20260509174025 | 27 | 320 | 9.7 | 16.1 | 0.00 | 0.00 | 0.00 | 59 | 1010.9 |
| 20260509173525 | 27 | 306 | 9.7 | 16.1 | 0.00 | 0.00 | 0.00 | 59 | 1011.0 |
| 20260509172526 | 26 | 17 | 14.5 | 20.9 | 0.00 | 0.00 | 0.00 | 60 | 1011.0 |
| 20260509172025 | 27 | 17 | 3.2 | 16.1 | 0.00 | 0.00 | 0.00 | 59 | 1011.1 |
| 20260509171025 | 26 | 359 | 20.9 | 20.9 | 0.00 | 0.00 | 0.00 | 59 | 1011.1 |
| 20260509170525 | 26 | 54 | 6.4 | 16.1 | 0.00 | 0.00 | 0.00 | 60 | 1011.2 |
| 20260509170025 | 26 | 272 | 6.4 | 16.1 | 0.00 | 0.00 | 0.00 | 61 | 1011.2 |
| 20260509165525 | 26 | 330 | 6.4 | 17.7 | 0.00 | 0.00 | 0.00 | 60 | 1011.2 |
| 20260509165025 | 26 | 24 | 9.7 | 17.7 | 0.00 | 0.00 | 0.00 | 61 | 1011.3 |
| 20260509164525 | 26 | 353 | 17.7 | 17.7 | 0.00 | 0.00 | 0.00 | 60 | 1011.3 |
| 20260509164025 | 26 | 345 | 6.4 | 16.1 | 0.00 | 0.00 | 0.00 | 59 | 1011.4 |
| 20260509163525 | 26 | 328 | 8.0 | 16.1 | 0.00 | 0.00 | 0.00 | 61 | 1011.4 |
| 20260509163025 | 26 | 7 | 11.3 | 16.1 | 0.00 | 0.00 | 0.00 | 58 | 1011.4 |
| 20260509162525 | 26 | 346 | 8.0 | 17.7 | 0.00 | 0.00 | 0.00 | 59 | 1011.4 |
| 20260509162025 | 26 | 356 | 8.0 | 17.7 | 0.00 | 0.00 | 0.00 | 61 | 1011.4 |
| 20260509161525 | 26 | 351 | 14.5 | 17.7 | 0.00 | 0.00 | 0.00 | 59 | 1011.4 |
| 20260509160525 | 25 | 275 | 8.0 | 16.1 | 0.00 | 0.00 | 0.00 | 61 | 1011.5 |
| 20260509155526 | 25 | 328 | 11.3 | 14.5 | 0.00 | 0.00 | 0.00 | 62 | 1011.4 |
| 20260509155025 | 25 | 287 | 11.3 | 14.5 | 0.00 | 0.00 | 0.00 | 62 | 1011.4 |
| 20260509154527 | 25 | 310 | 11.3 | 20.9 | 0.00 | 0.00 | 0.00 | 63 | 1011.3 |
| 20260509153526 | 25 | 270 | 14.5 | 17.7 | 0.00 | 0.00 | 0.00 | 63 | 1011.3 |
| 20260509153026 | 25 | 281 | 14.5 | 17.7 | 0.00 | 0.00 | 0.00 | 65 | 1011.2 |
| 20260509152526 | 25 | 299 | 6.4 | 14.5 | 0.00 | 0.00 | 0.00 | 65 | 1011.3 |
| 20260509152026 | 24 | 294 | 6.4 | 16.1 | 0.00 | 0.00 | 0.00 | 66 | 1011.3 |
| 20260509151526 | 24 | 290 | 6.4 | 16.1 | 0.00 | 0.00 | 0.00 | 67 | 1011.3 |
| 20260509151025 | 24 | 300 | 16.1 | 16.1 | 0.00 | 0.00 | 0.00 | 69 | 1011.3 |
| 20260509150525 | 24 | 272 | 9.7 | 16.1 | 0.00 | 0.00 | 0.00 | 67 | 1011.3 |
| 20260509150025 | 24 | 295 | 14.5 | 16.1 | 0.00 | 0.00 | 0.00 | 68 | 1011.4 |
| 20260509145526 | 24 | 300 | 9.7 | 16.1 | 0.00 | 0.00 | 0.00 | 69 | 1011.4 |
| 20260509145026 | 23 | 313 | 12.9 | 16.1 | 0.00 | 0.00 | 0.00 | 69 | 1011.4 |
| 20260509144526 | 23 | 317 | 9.7 | 16.1 | 0.00 | 0.00 | 0.00 | 72 | 1011.4 |
| 20260509144025 | 23 | 307 | 14.5 | 17.7 | 0.00 | 0.00 | 0.00 | 72 | 1011.3 |
| 20260509143525 | 23 | 309 | 12.9 | 17.7 | 0.00 | 0.00 | 0.00 | 72 | 1011.3 |
| 20260509143026 | 23 | 322 | 12.9 | 16.1 | 0.00 | 0.00 | 0.00 | 73 | 1011.3 |
| 20260509142525 | 23 | 308 | 9.7 | 17.7 | 0.00 | 0.00 | 0.00 | 74 | 1011.3 |
| 20260509141525 | 23 | 297 | 12.9 | 16.1 | 0.00 | 0.00 | 0.00 | 74 | 1011.3 |
| 20260509140025 | 22 | 303 | 12.9 | 16.1 | 0.00 | 0.00 | 0.00 | 78 | 1011.3 |
| 20260509135526 | 22 | 304 | 11.3 | 16.1 | 0.00 | 0.00 | 0.00 | 81 | 1011.3 |
| 20260509134526 | 21 | 301 | 8.0 | 12.9 | 0.00 | 0.00 | 0.00 | 86 | 1011.4 |
| 20260509134025 | 21 | 289 | 11.3 | 12.9 | 0.00 | 0.00 | 0.00 | 87 | 1011.4 |
| 20260509133526 | 21 | 306 | 11.3 | 12.9 | 0.00 | 0.00 | 0.00 | 88 | 1011.4 |
| 20260509133025 | 21 | 333 | 12.9 | 12.9 | 0.00 | 0.00 | 0.00 | 87 | 1011.4 |
| 20260509132525 | 21 | 324 | 11.3 | 14.5 | 0.00 | 0.00 | 0.00 | 88 | 1011.4 |
| 20260509132027 | 20 | 332 | 11.3 | 14.5 | 0.00 | 0.00 | 0.00 | 88 | 1011.3 |
| 20260509131525 | 20 | 340 | 8.0 | 12.9 | 0.00 | 0.00 | 0.00 | 88 | 1011.3 |
| 20260509131025 | 20 | 340 | 11.3 | 12.9 | 0.00 | 0.00 | 0.00 | 88 | 1011.3 |
| 20260509130525 | 20 | 349 | 11.3 | 11.3 | 0.00 | 0.00 | 0.00 | 89 | 1011.3 |
| 20260509130026 | 20 | 340 | 8.0 | 14.5 | 0.00 | 0.00 | 0.00 | 90 | 1011.3 |
| 20260509125527 | 20 | 340 | 8.0 | 14.5 | 0.00 | 0.00 | 0.00 | 91 | 1011.3 |
| 20260509125025 | 19 | 346 | 9.7 | 11.3 | 0.00 | 0.00 | 0.00 | 91 | 1011.2 |
| 20260509124526 | 19 | 337 | 8.0 | 9.7 | 0.00 | 0.00 | 0.00 | 92 | 1011.3 |
| 20260509124026 | 19 | 321 | 8.0 | 11.3 | 0.00 | 0.00 | 0.00 | 93 | 1011.3 |
| 20260509123525 | 18 | 334 | 8.0 | 11.3 | 0.00 | 0.00 | 0.00 | 94 | 1011.2 |
| 20260509122526 | 18 | 274 | 8.0 | 11.3 | 0.00 | 0.00 | 0.00 | 96 | 1011.2 |
| 20260509121026 | 18 | 287 | 6.4 | 9.7 | 0.00 | 0.00 | 0.00 | 97 | 1011.2 |
| 20260509120026 | 18 | 338 | 4.8 | 11.3 | 0.00 | 0.00 | 0.00 | 97 | 1011.1 |
| 20260509115525 | 18 | 279 | 8.0 | 11.3 | 0.00 | 0.00 | 0.00 | 98 | 1011.1 |
| 20260509115025 | 18 | 281 | 9.7 | 14.5 | 0.00 | 0.00 | 0.00 | 98 | 1011.0 |
| 20260509114526 | 19 | 293 | 8.0 | 14.5 | 0.00 | 0.13 | 0.00 | 98 | 1011.0 |
| 20260509114025 | 19 | 291 | 9.7 | 11.3 | 0.00 | 0.25 | 0.00 | 98 | 1010.9 |
| 20260509113025 | 19 | 273 | 9.7 | 14.5 | 0.00 | 0.53 | 0.00 | 98 | 1010.7 |
| 20260509112526 | 18 | 282 | 11.3 | 12.9 | 0.00 | 0.76 | 0.00 | 99 | 1010.7 |
| 20260509112026 | 18 | 294 | 11.3 | 12.9 | 0.00 | 0.89 | 0.00 | 99 | 1010.7 |
| 20260509111526 | 18 | 264 | 9.7 | 14.5 | 0.00 | 0.91 | 0.00 | 99 | 1010.7 |
| 20260509111025 | 18 | 261 | 11.3 | 14.5 | 0.00 | 0.91 | 0.00 | 98 | 1010.5 |
| 20260509110525 | 18 | 268 | 12.9 | 14.5 | 0.00 | 0.91 | 0.00 | 98 | 1010.4 |